TimeMST,TemperatureF,Dew PointF,Humidity,Sea Level PressureIn,VisibilityMPH,Wind Direction,Wind SpeedMPH,Gust SpeedMPH,PrecipitationIn,Events,Conditions,WindDirDegrees,DateUTC
12:53 AM,32.0,21.9,66,30.38,10.0,ESE,4.6,-,N/A,,Clear,120,2012-11-05 07:53:00
1:53 AM,33.1,21.9,64,30.38,10.0,Calm,Calm,-,N/A,,Clear,0,2012-11-05 08:53:00
2:53 AM,30.9,24.1,76,30.37,10.0,ENE,4.6,-,N/A,,Clear,60,2012-11-05 09:53:00
3:53 AM,30.9,21.9,69,30.37,10.0,Calm,Calm,-,N/A,,Clear,0,2012-11-05 10:53:00
4:53 AM,30.9,21.9,69,30.38,10.0,Calm,Calm,-,N/A,,Clear,0,2012-11-05 11:53:00
5:53 AM,30.0,21.9,72,30.41,10.0,South,3.5,-,N/A,,Clear,190,2012-11-05 12:53:00
6:53 AM,28.9,21.9,75,30.43,10.0,Calm,Calm,-,N/A,,Clear,0,2012-11-05 13:53:00
7:53 AM,34.0,24.1,67,30.45,10.0,Calm,Calm,-,N/A,,Clear,0,2012-11-05 14:53:00
8:53 AM,39.9,25.0,55,30.43,10.0,Calm,Calm,-,N/A,,Clear,0,2012-11-05 15:53:00
9:53 AM,46.0,27.0,47,30.40,10.0,Calm,Calm,-,N/A,,Clear,0,2012-11-05 16:53:00
10:53 AM,52.0,27.0,38,30.38,10.0,Calm,Calm,-,N/A,,Clear,0,2012-11-05 17:53:00
11:53 AM,57.0,28.0,33,30.32,10.0,Calm,Calm,-,N/A,,Clear,0,2012-11-05 18:53:00
12:53 PM,59.0,28.0,31,30.28,10.0,Calm,Calm,-,N/A,,Clear,0,2012-11-05 19:53:00
1:53 PM,61.0,28.9,30,30.25,10.0,WNW,4.6,-,N/A,,Clear,300,2012-11-05 20:53:00
2:53 PM,64.0,28.9,27,30.23,10.0,West,9.2,-,N/A,,Clear,270,2012-11-05 21:53:00
3:53 PM,64.0,28.9,27,30.22,10.0,West,9.2,-,N/A,,Clear,270,2012-11-05 22:53:00
4:53 PM,60.1,28.0,30,30.23,10.0,West,11.5,-,N/A,,Clear,260,2012-11-05 23:53:00
5:53 PM,57.9,28.0,32,30.25,10.0,WSW,10.4,-,N/A,,Clear,240,2012-11-06 00:53:00
6:53 PM,48.9,27.0,43,30.31,10.0,SE,6.9,-,N/A,,Clear,140,2012-11-06 01:53:00
7:53 PM,48.9,27.0,43,30.30,10.0,SSE,6.9,-,N/A,,Clear,160,2012-11-06 02:53:00
8:53 PM,43.0,27.0,53,30.31,10.0,SE,3.5,-,N/A,,Clear,130,2012-11-06 03:53:00
9:53 PM,41.0,26.1,55,30.32,10.0,Calm,Calm,-,N/A,,Clear,0,2012-11-06 04:53:00
10:53 PM,39.0,26.1,60,30.31,10.0,Calm,Calm,-,N/A,,Clear,0,2012-11-06 05:53:00
11:53 PM,37.0,25.0,62,30.32,10.0,Calm,Calm,-,N/A,,Clear,0,2012-11-06 06:53:00